Tracking 31027 objects as of 19-Jul-2025
HD Live streaming from Space Station
objects crossing your sky now

THORAD AGENA D DEB

Track THORAD AGENA D DEB now!
10-day predictions


NORAD ID: 4977
Int'l Code: 1970-025GX
Perigee: 1,055.9 km
Apogee: 1,085.3 km
Inclination: 100.1 °
Period: 106.5 minutes
Semi major axis: 7441 km
RCS: 0.0367 m2 (small)
Launch date: April 8, 1970
Source: United States (US)
Launch site: AIR FORCE WESTERN TEST RANGE (AFWTR)

Note: This is SATELLITE DEBRIS
Your satellite tracking list
LANDSAT 5
Track 1 satellite(s)




NASA's NSSDC Master Catalog

Two Line Element Set (TLE):
1  4977U 70025GX  25199.83106593  .00000043  00000-0  13510-3 0  9992
2  4977 100.1024 330.5930 0019793 358.8209 159.2551 13.52389270725310
Source of the keplerian elements: AFSPC